When you browse on this site, cookies collect data to enhance your experience and personalize the content and advertising you see.
Visit our Privacy Policy to learn more. By continuing to use the site, you agree to this use of cookies and data.
  • In Latvia
  • List of Countries
  • For 7 days
  • Water Temperature
  • Satellite Maps
  • Weather Map
  • Weather Widgets
  • user-avatar
    Login

    Hourly Weather Glarus

    Today, 24 April, Wednesday

    Time Temperature Precipitation Wind Pressure Humidity
    00:00 +13°C° 0 mm 4 mps 703 mmHg 75%
    01:00 +13°C° 0 mm 4 mps 703 mmHg 74%
    02:00 +13°C° 0 mm 4 mps 704 mmHg 75%
    03:00 +12°C° 0 mm 4 mps 704 mmHg 76%
    04:00 +12°C° 0 mm 4 mps 704 mmHg 77%
    05:00 +13°C° 0 mm 4 mps 705 mmHg 77%
    06:00 +13°C° 0 mm 4 mps 705 mmHg 77%
    07:00 +14°C° 0 mm 5 mps 705 mmHg 74%
    08:00 +15°C° 0 mm 5 mps 705 mmHg 70%
    09:00 +17°C° 0 mm 5 mps 705 mmHg 65%
    10:00 +19°C° 0 mm 4 mps 706 mmHg 60%
    11:00 +19°C° 0 mm 5 mps 706 mmHg 57%
    12:00 +20°C° 0 mm 5 mps 706 mmHg 53%
    13:00 +20°C° 0 mm 6 mps 706 mmHg 51%
    14:00 +20°C° 0.1 mm 6 mps 706 mmHg 51%
    15:00 +20°C° 0.1 mm 5 mps 706 mmHg 50%
    16:00 +20°C° 0.1 mm 5 mps 706 mmHg 50%
    17:00 +18°C° 0.3 mm 4 mps 707 mmHg 59%
    18:00 +15°C° 0.3 mm 4 mps 707 mmHg 69%
    19:00 +13°C° 0.3 mm 3 mps 708 mmHg 78%
    20:00 +12°C° 0.1 mm 3 mps 708 mmHg 81%
    21:00 +11°C° 0.1 mm 3 mps 709 mmHg 83%
    22:00 +10°C° 0.1 mm 3 mps 710 mmHg 85%
    23:00 +10°C° 0 mm 3 mps 710 mmHg 84%

    Tomorrow, 25 April, Thursday

    Time Temperature Precipitation Wind Pressure Humidity
    00:00 +10°C° 0 mm 4 mps 710 mmHg 82%
    01:00 +10°C° 0 mm 4 mps 710 mmHg 80%
    02:00 +10°C° 0 mm 4 mps 710 mmHg 79%
    03:00 +10°C° 0 mm 4 mps 710 mmHg 77%
    04:00 +10°C° 0 mm 4 mps 710 mmHg 76%
    05:00 +11°C° 0 mm 4 mps 710 mmHg 73%
    06:00 +12°C° 0 mm 5 mps 710 mmHg 71%
    07:00 +12°C° 0 mm 5 mps 710 mmHg 68%
    08:00 +14°C° 0 mm 5 mps 711 mmHg 63%
    09:00 +15°C° 0 mm 5 mps 711 mmHg 57%
    10:00 +16°C° 0 mm 5 mps 711 mmHg 51%
    11:00 +17°C° 0 mm 5 mps 710 mmHg 49%
    12:00 +19°C° 0 mm 6 mps 710 mmHg 46%
    13:00 +20°C° 0 mm 6 mps 710 mmHg 44%
    14:00 +19°C° 0 mm 6 mps 710 mmHg 45%
    15:00 +19°C° 0 mm 6 mps 709 mmHg 46%
    16:00 +19°C° 0 mm 6 mps 709 mmHg 47%
    17:00 +17°C° 0 mm 5 mps 709 mmHg 54%
    18:00 +15°C° 0 mm 5 mps 709 mmHg 60%
    19:00 +14°C° 0 mm 4 mps 709 mmHg 67%
    20:00 +13°C° 0 mm 4 mps 709 mmHg 70%
    21:00 +12°C° 0 mm 4 mps 710 mmHg 72%
    22:00 +12°C° 0 mm 4 mps 710 mmHg 75%
    23:00 +11°C° 0 mm 4 mps 710 mmHg 78%

    Day after tomorrow, 26 April, Friday

    Time Temperature Precipitation Wind Pressure Humidity
    00:00 +11°C° 0 mm 3 mps 710 mmHg 80%
    01:00 +10°C° 0 mm 3 mps 709 mmHg 83%
    02:00 +10°C° 0.1 mm 3 mps 709 mmHg 84%
    03:00 +10°C° 0.1 mm 2 mps 709 mmHg 85%
    04:00 +10°C° 0.1 mm 2 mps 709 mmHg 85%
    05:00 +10°C° 0.6 mm 2 mps 709 mmHg 88%
    06:00 +11°C° 0.6 mm 1 mps 708 mmHg 91%
    07:00 +11°C° 0.6 mm 1 mps 708 mmHg 94%
    08:00 +10°C° 3.8 mm 1 mps 709 mmHg 95%
    09:00 +8°C° 3.8 mm 2 mps 709 mmHg 96%
    10:00 +8°C° 3.8 mm 3 mps 709 mmHg 97%
    11:00 +7°C° 2.8 mm 3 mps 710 mmHg 97%
    12:00 +7°C° 2.8 mm 3 mps 711 mmHg 96%
    13:00 +5°C° 2.8 mm 3 mps 711 mmHg 96%
    14:00 +6°C° 1.5 mm 2 mps 712 mmHg 96%
    15:00 +6°C° 1.5 mm 2 mps 712 mmHg 96%
    16:00 +6°C° 1.5 mm 2 mps 713 mmHg 96%
    17:00 +6°C° 0.3 mm 2 mps 713 mmHg 95%
    18:00 +7°C° 0.3 mm 1 mps 713 mmHg 95%
    19:00 +7°C° 0.3 mm 1 mps 713 mmHg 95%
    20:00 +6°C° 0 mm 1 mps 714 mmHg 93%
    21:00 +5°C° 0 mm 1 mps 714 mmHg 92%
    22:00 +5°C° 0 mm 1 mps 715 mmHg 91%
    23:00 +4°C° 0 mm 1 mps 715 mmHg 89%

    27 April, Saturday

    Time Temperature Precipitation Wind Pressure Humidity
    00:00 +3°C° 0 mm 2 mps 715 mmHg 88%
    01:00 +3°C° 0 mm 2 mps 715 mmHg 87%
    02:00 +2°C° 0 mm 2 mps 714 mmHg 86%
    03:00 +2°C° 0 mm 2 mps 714 mmHg 86%
    04:00 +2°C° 0 mm 2 mps 714 mmHg 86%
    05:00 +3°C° 0 mm 2 mps 714 mmHg 86%
    06:00 +4°C° 0 mm 2 mps 714 mmHg 86%
    07:00 +5°C° 0 mm 2 mps 714 mmHg 86%
    08:00 +7°C° 0.3 mm 1 mps 714 mmHg 88%
    09:00 +8°C° 0.3 mm 1 mps 714 mmHg 90%
    10:00 +9°C° 0.3 mm 1 mps 714 mmHg 91%
    11:00 +10°C° 0.1 mm 1 mps 713 mmHg 90%
    12:00 +11°C° 0.1 mm 1 mps 713 mmHg 88%
    13:00 +12°C° 0.1 mm 2 mps 713 mmHg 86%
    14:00 +12°C° 0.4 mm 2 mps 712 mmHg 87%
    15:00 +12°C° 0.4 mm 2 mps 712 mmHg 88%
    16:00 +12°C° 0.4 mm 2 mps 712 mmHg 89%
    17:00 +10°C° 1 mm 2 mps 712 mmHg 92%
    18:00 +9°C° 1 mm 2 mps 712 mmHg 95%
    19:00 +8°C° 1 mm 3 mps 712 mmHg 98%
    20:00 +7°C° 0.8 mm 2 mps 712 mmHg 97%
    21:00 +6°C° 0.8 mm 2 mps 713 mmHg 97%
    22:00 +6°C° 0.8 mm 2 mps 713 mmHg 97%
    23:00 +5°C° 0.1 mm 2 mps 713 mmHg 97%

    28 April, Sunday

    Time Temperature Precipitation Wind Pressure Humidity
    00:00 +6°C° 0.1 mm 1 mps 713 mmHg 96%
    01:00 +5°C° 0.1 mm 1 mps 712 mmHg 96%
    02:00 +5°C° 0.2 mm 1 mps 712 mmHg 96%
    03:00 +5°C° 0.2 mm 1 mps 712 mmHg 95%
    04:00 +5°C° 0.2 mm 1 mps 712 mmHg 95%
    05:00 +6°C° 0.3 mm 1 mps 713 mmHg 95%
    06:00 +6°C° 0.3 mm 1 mps 713 mmHg 95%
    07:00 +5°C° 0.3 mm 0 mps 713 mmHg 94%
    08:00 +7°C° 0.1 mm 1 mps 713 mmHg 92%
    09:00 +8°C° 0.1 mm 1 mps 713 mmHg 90%
    10:00 +8°C° 0.1 mm 2 mps 714 mmHg 87%
    11:00 +8°C° 0.3 mm 2 mps 714 mmHg 89%
    12:00 +8°C° 0.3 mm 2 mps 713 mmHg 91%
    13:00 +8°C° 0.3 mm 2 mps 713 mmHg 93%
    14:00 +8°C° 0.5 mm 2 mps 713 mmHg 92%
    15:00 +8°C° 0.5 mm 2 mps 713 mmHg 92%
    16:00 +9°C° 0.5 mm 2 mps 713 mmHg 92%
    17:00 +9°C° 0.2 mm 1 mps 714 mmHg 93%
    18:00 +8°C° 0.2 mm 1 mps 714 mmHg 94%
    19:00 +8°C° 0.2 mm 1 mps 714 mmHg 94%
    20:00 +7°C° 0 mm 1 mps 715 mmHg 95%
    21:00 +6°C° 0 mm 1 mps 715 mmHg 95%
    22:00 +5°C° 0 mm 1 mps 716 mmHg 96%
    23:00 +5°C° 0 mm 1 mps 716 mmHg 95%

    29 April, Monday

    Time Temperature Precipitation Wind Pressure Humidity
    00:00 +5°C° 0 mm 1 mps 716 mmHg 95%
    01:00 +5°C° 0 mm 1 mps 716 mmHg 94%
    02:00 +5°C° 0.1 mm 1 mps 716 mmHg 94%
    03:00 +6°C° 0.1 mm 1 mps 716 mmHg 94%
    04:00 +5°C° 0.1 mm 0 mps 716 mmHg 94%
    05:00 +5°C° 0.1 mm 0 mps 716 mmHg 94%
    06:00 +6°C° 0.1 mm 0 mps 715 mmHg 94%
    07:00 +6°C° 0.1 mm 0 mps 715 mmHg 94%
    08:00 +8°C° 0 mm 1 mps 715 mmHg 92%
    09:00 +9°C° 0 mm 1 mps 715 mmHg 89%
    10:00 +9°C° 0 mm 2 mps 714 mmHg 87%
    11:00 +10°C° 0 mm 2 mps 714 mmHg 85%
    12:00 +10°C° 0 mm 2 mps 714 mmHg 84%
    13:00 +12°C° 0 mm 2 mps 713 mmHg 82%
    14:00 +12°C° 0.2 mm 2 mps 713 mmHg 83%
    15:00 +12°C° 0.2 mm 2 mps 713 mmHg 85%
    16:00 +12°C° 0.2 mm 2 mps 713 mmHg 87%
    17:00 +12°C° 0.3 mm 2 mps 713 mmHg 91%
    18:00 +10°C° 0.3 mm 2 mps 713 mmHg 94%
    19:00 +10°C° 0.3 mm 1 mps 713 mmHg 97%
    20:00 +10°C° 0.1 mm 1 mps 713 mmHg 98%
    21:00 +9°C° 0.1 mm 1 mps 713 mmHg 98%
    22:00 +8°C° 0.1 mm 0 mps 713 mmHg 98%
    23:00 +8°C° 0.1 mm 0 mps 713 mmHg 98%
    Show more